This is the latest recevied weather packets stored in our database for station/object N9EA. If no packets are shown the sender has not sent any weather packets the latest 10 day(s).
| Time | Temp. | Humidity | Pressure | Rain* | Wind** | Luminosity | Snow |
|---|---|---|---|---|---|---|---|
| 1778181215 | 15.56° C | 55% | 1010.8 hPa | 0 mm | - | 707 W/m² | - |
| 1778180912 | 15.56° C | 54% | 1011 hPa | 0 mm | - | 741 W/m² | - |
| 1778180610 | 15° C | 59% | 1011 hPa | 0 mm | - | 728 W/m² | - |
| 1778180309 | 15° C | 58% | 1011 hPa | 0 mm | - | 743 W/m² | - |
| 1778180005 | 14.44° C | 59% | 1011 hPa | 0 mm | - | 739 W/m² | - |
| 1778179702 | 14.44° C | 62% | 1011.3 hPa | 0 mm | - | 261 W/m² | - |
| 1778179401 | 13.89° C | 62% | 1011.2 hPa | 0 mm | - | 750 W/m² | - |
| 1778179097 | 14.44° C | 62% | 1011.2 hPa | 0 mm | - | 764 W/m² | - |
| 1778178794 | 13.89° C | 62% | 1011.3 hPa | 0 mm | - | 775 W/m² | - |
| 1778178492 | 13.89° C | 62% | 1011.2 hPa | 0 mm | - | 338 W/m² | - |
| 1778178187 | 14.44° C | 62% | 1011.3 hPa | 0 mm | - | 717 W/m² | - |
| 1778177884 | 13.89° C | 62% | 1011.2 hPa | 0 mm | - | 756 W/m² | - |
| 1778177579 | 13.89° C | 62% | 1011.3 hPa | 0 mm | - | 762 W/m² | - |
| 1778177276 | 13.33° C | 63% | 1011.4 hPa | 0 mm | - | 778 W/m² | - |
| 1778176974 | 13.33° C | 64% | 1011.8 hPa | 0 mm | - | 760 W/m² | - |
| 1778176669 | 12.78° C | 66% | 1011.8 hPa | 0 mm | - | 764 W/m² | - |
| 1778176366 | 12.22° C | 69% | 1012 hPa | 0 mm | - | 682 W/m² | - |
| 1778176063 | 12.22° C | 70% | 1012.3 hPa | 0 mm | - | 359 W/m² | - |
| 1778175761 | 11.67° C | 71% | 1012.4 hPa | 0 mm | - | 293 W/m² | - |
| 1778175459 | 11.11° C | 70% | 1012.6 hPa | 0 mm | - | 522 W/m² | - |
| 1778175156 | 10.56° C | 71% | 1012.5 hPa | 1.78 mm | - | 387 W/m² | - |
| 1778174852 | 10.56° C | 71% | 1012.6 hPa | 1.78 mm | - | 373 W/m² | - |
| 1778174548 | 10.56° C | 69% | 1012.8 hPa | 0 mm | - | 122 W/m² | - |
| 1778174243 | 10° C | 71% | 1012.8 hPa | 0 mm | - | 92 W/m² | - |
| 1778173941 | 10° C | 72% | 1012.6 hPa | 0 mm | - | 162 W/m² | - |
* Rain latest hour (hover to see other rain measurements)
** Current wind speed in m/s (hover to see current wind gust speed)